Tracking 30922 objects as of 2-Jul-2025
HD Live streaming from Space Station
objects crossing your sky now

STARLINK-4570

Track STARLINK-4570 now!
10-day predictions


NORAD ID: 53690
Int'l Code: 2022-105AU
Perigee: 569.6 km
Apogee: 570.7 km
Inclination: 97.7 °
Period: 95.9 minutes
Semi major axis: 6941 km
RCS: Unknown
Launch date: August 31, 2022
Source: United States (US)
Launch site: AIR FORCE WESTERN TEST RANGE (AFWTR)
Your satellite tracking list
Your tracking list is empty




NASA's NSSDC Master Catalog

Two Line Element Set (TLE):
1 53690U 22105AU  25182.59511745 -.00000175  00000-0 -90273-5 0  9999
2 53690  97.6560  63.9369 0000766   1.1260 358.9966 15.01258714155565
Source of the keplerian elements: AFSPC